owner,sensor,date,latitude,longitude,vertical_datum,direction_of_sea_water_velocity,sea_water_speed,upward_sea_water_velocity,qcFlag 
ADCP,ioos:station:wmo:42373:1,2009-04-01T00:11:00Z,27.3540,-94.6250,79.0,111.0,6.5,-9999.0,'11133222,11111222,99999999' 
ADCP,ioos:station:wmo:42373:1,2009-04-01T00:31:00Z,27.3540,-94.6250,79.0,136.0,6.9,-9999.0,'11133222,11111222,99999999' 
ADCP,ioos:station:wmo:42373:1,2009-04-01T00:51:00Z,27.3540,-94.6250,79.0,133.0,7.7,-9999.0,'11133222,11111222,99999999' 
ADCP,ioos:station:wmo:42373:1,2009-04-01T01:11:00Z,27.3540,-94.6250,79.0,133.0,8.8,-9999.0,'11133222,11111222,99999999' 
ADCP,ioos:station:wmo:42373:1,2009-04-01T01:31:00Z,27.3540,-94.6250,79.0,129.0,8.2,-9999.0,'11133222,11111222,99999999' 
ADCP,ioos:station:wmo:42373:1,2009-04-01T01:51:00Z,27.3540,-94.6250,79.0,146.0,7.6,-9999.0,'11133222,11111222,99999999' 
ADCP,ioos:station:wmo:42373:1,2009-04-01T02:11:00Z,27.3540,-94.6250,79.0,141.0,8.0,-9999.0,'11133222,11111222,99999999' 
ADCP,ioos:station:wmo:42373:1,2009-04-01T02:31:00Z,27.3540,-94.6250,79.0,149.0,7.4,-9999.0,'11133222,11111222,99999999' 
ADCP,ioos:station:wmo:42373:1,2009-04-01T02:51:00Z,27.3540,-94.6250,79.0,136.0,8.8,-9999.0,'11133222,11111222,99999999' 
ADCP,ioos:station:wmo:42373:1,2009-04-01T03:11:00Z,27.3540,-94.6250,79.0,138.0,8.4,-9999.0,'11133222,11111222,99999999' 
ADCP,ioos:station:wmo:42373:1,2009-04-01T03:31:00Z,27.3540,-94.6250,79.0,139.0,8.0,-9999.0,'11133222,11111222,99999999' 
ADCP,ioos:station:wmo:42373:1,2009-04-01T03:51:00Z,27.3540,-94.6250,79.0,130.0,8.9,-9999.0,'11133222,11111222,99999999' 
ADCP,ioos:station:wmo:42373:1,2009-04-01T04:11:00Z,27.3540,-94.6250,79.0,129.0,10.1,-9999.0,'11111222,11111222,99999999' 
ADCP,ioos:station:wmo:42373:1,2009-04-01T04:31:00Z,27.3540,-94.6250,79.0,127.0,10.1,-9999.0,'11111222,11111222,99999999' 
ADCP,ioos:station:wmo:42373:1,2009-04-01T04:51:00Z,27.3540,-94.6250,79.0,125.0,9.7,-9999.0,'11133222,11111222,99999999' 
ADCP,ioos:station:wmo:42373:1,2009-04-01T05:11:00Z,27.3540,-94.6250,79.0,127.0,10.2,-9999.0,'11111222,11111222,99999999' 
ADCP,ioos:station:wmo:42373:1,2009-04-01T05:31:00Z,27.3540,-94.6250,79.0,127.0,11.5,-9999.0,'11111222,11111222,99999999' 
ADCP,ioos:station:wmo:42373:1,2009-04-01T05:51:00Z,27.3540,-94.6250,79.0,137.0,10.8,-9999.0,'11111222,11111222,99999999' 
ADCP,ioos:station:wmo:42373:1,2009-04-01T06:11:00Z,27.3540,-94.6250,79.0,139.0,11.5,-9999.0,'11111222,11111222,99999999' 
ADCP,ioos:station:wmo:42373:1,2009-04-01T06:31:00Z,27.3540,-94.6250,79.0,137.0,12.4,-9999.0,'11111222,11111222,99999999' 
ADCP,ioos:station:wmo:42373:1,2009-04-01T06:51:00Z,27.3540,-94.6250,79.0,143.0,12.1,-9999.0,'11111222,11111222,99999999' 
ADCP,ioos:station:wmo:42373:1,2009-04-01T07:11:00Z,27.3540,-94.6250,79.0,143.0,13.0,-9999.0,'11111222,11111222,99999999' 
ADCP,ioos:station:wmo:42373:1,2009-04-01T07:31:00Z,27.3540,-94.6250,79.0,143.0,13.2,-9999.0,'11111222,11111222,99999999' 
ADCP,ioos:station:wmo:42373:1,2009-04-01T07:51:00Z,27.3540,-94.6250,79.0,146.0,12.8,-9999.0,'11111222,11111222,99999999' 
ADCP,ioos:station:wmo:42373:1,2009-04-01T08:11:00Z,27.3540,-94.6250,79.0,153.0,12.5,-9999.0,'11111222,11111222,99999999' 
ADCP,ioos:station:wmo:42373:1,2009-04-01T08:31:00Z,27.3540,-94.6250,79.0,154.0,12.4,-9999.0,'11111222,11111222,99999999' 
ADCP,ioos:station:wmo:42373:1,2009-04-01T08:51:00Z,27.3540,-94.6250,79.0,156.0,12.1,-9999.0,'11111222,11111222,99999999' 
ADCP,ioos:station:wmo:42373:1,2009-04-01T09:11:00Z,27.3540,-94.6250,79.0,153.0,12.2,-9999.0,'11111222,11111222,99999999' 
ADCP,ioos:station:wmo:42373:1,2009-04-01T09:31:00Z,27.3540,-94.6250,79.0,157.0,11.5,-9999.0,'11111222,11111222,99999999' 
ADCP,ioos:station:wmo:42373:1,2009-04-01T09:51:00Z,27.3540,-94.6250,79.0,153.0,11.4,-9999.0,'11111222,11111222,99999999' 
ADCP,ioos:station:wmo:42373:1,2009-04-01T10:11:00Z,27.3540,-94.6250,79.0,152.0,10.3,-9999.0,'11111222,11111222,99999999' 
ADCP,ioos:station:wmo:42373:1,2009-04-01T10:31:00Z,27.3540,-94.6250,79.0,147.0,10.6,-9999.0,'11111222,11111222,99999999' 
ADCP,ioos:station:wmo:42373:1,2009-04-01T10:51:00Z,27.3540,-94.6250,79.0,142.0,9.5,-9999.0,'11133222,11111222,99999999' 
ADCP,ioos:station:wmo:42373:1,2009-04-01T11:11:00Z,27.3540,-94.6250,79.0,135.0,10.0,-9999.0,'11111222,11111222,99999999' 
ADCP,ioos:station:wmo:42373:1,2009-04-01T11:31:00Z,27.3540,-94.6250,79.0,134.0,11.7,-9999.0,'11111222,11111222,99999999' 
ADCP,ioos:station:wmo:42373:1,2009-04-01T11:51:00Z,27.3540,-94.6250,79.0,131.0,8.4,-9999.0,'11133222,11111222,99999999' 
ADCP,ioos:station:wmo:42373:1,2009-04-01T12:11:00Z,27.3540,-94.6250,79.0,121.0,8.8,-9999.0,'11133222,11111222,99999999' 
ADCP,ioos:station:wmo:42373:1,2009-04-01T12:31:00Z,27.3540,-94.6250,79.0,102.0,15.4,-9999.0,'11111222,11111222,99999999' 
ADCP,ioos:station:wmo:42373:1,2009-04-01T12:51:00Z,27.3540,-94.6250,79.0,109.0,12.6,-9999.0,'11111222,11111222,99999999' 
ADCP,ioos:station:wmo:42373:1,2009-04-01T13:11:00Z,27.3540,-94.6250,79.0,105.0,13.9,-9999.0,'11111222,11111222,99999999' 
ADCP,ioos:station:wmo:42373:1,2009-04-01T13:31:00Z,27.3540,-94.6250,79.0,137.0,8.6,-9999.0,'11133222,11111222,99999999' 
ADCP,ioos:station:wmo:42373:1,2009-04-01T13:51:00Z,27.3540,-94.6250,79.0,141.0,5.9,-9999.0,'11133222,11111222,99999999' 
ADCP,ioos:station:wmo:42373:1,2009-04-01T14:11:00Z,27.3540,-94.6250,79.0,115.0,3.8,-9999.0,'11133222,11111222,99999999' 
ADCP,ioos:station:wmo:42373:1,2009-04-01T14:31:00Z,27.3540,-94.6250,79.0,81.0,9.7,-9999.0,'11133222,11111222,99999999' 
ADCP,ioos:station:wmo:42373:1,2009-04-01T14:51:00Z,27.3540,-94.6250,79.0,31.0,1.7,-9999.0,'11133222,11111222,99999999' 
ADCP,ioos:station:wmo:42373:1,2009-04-01T15:11:00Z,27.3540,-94.6250,79.0,102.0,8.4,-9999.0,'11133222,11111222,99999999' 
ADCP,ioos:station:wmo:42373:1,2009-04-01T15:31:00Z,27.3540,-94.6250,79.0,96.0,12.8,-9999.0,'11111222,11111222,99999999' 
ADCP,ioos:station:wmo:42373:1,2009-04-01T15:51:00Z,27.3540,-94.6250,79.0,132.0,7.3,-9999.0,'11133222,11111222,99999999' 
ADCP,ioos:station:wmo:42373:1,2009-04-01T16:11:00Z,27.3540,-94.6250,79.0,118.0,11.1,-9999.0,'11111222,11111222,99999999' 
ADCP,ioos:station:wmo:42373:1,2009-04-01T16:31:00Z,27.3540,-94.6250,79.0,115.0,11.4,-9999.0,'11111222,11111222,99999999' 
ADCP,ioos:station:wmo:42373:1,2009-04-01T16:51:00Z,27.3540,-94.6250,79.0,118.0,13.6,-9999.0,'11111222,11111222,99999999' 
ADCP,ioos:station:wmo:42373:1,2009-04-01T17:11:00Z,27.3540,-94.6250,79.0,124.0,12.5,-9999.0,'11111222,11111222,99999999' 
ADCP,ioos:station:wmo:42373:1,2009-04-01T17:31:00Z,27.3540,-94.6250,79.0,131.0,12.8,-9999.0,'11111222,11111222,99999999' 
ADCP,ioos:station:wmo:42373:1,2009-04-01T17:51:00Z,27.3540,-94.6250,79.0,131.0,12.3,-9999.0,'11111222,11111222,99999999' 
ADCP,ioos:station:wmo:42373:1,2009-04-01T18:31:00Z,27.3540,-94.6250,79.0,120.0,13.8,-9999.0,'11111222,11111222,99999999' 
ADCP,ioos:station:wmo:42373:1,2009-04-01T18:51:00Z,27.3540,-94.6250,79.0,133.0,12.8,-9999.0,'11111222,11111222,99999999' 
ADCP,ioos:station:wmo:42373:1,2009-04-01T19:11:00Z,27.3540,-94.6250,79.0,165.0,8.3,-9999.0,'11133222,11111222,99999999' 
ADCP,ioos:station:wmo:42373:1,2009-04-01T19:31:00Z,27.3540,-94.6250,79.0,148.0,10.1,-9999.0,'11111222,11111222,99999999' 
ADCP,ioos:station:wmo:42373:1,2009-04-01T19:51:00Z,27.3540,-94.6250,79.0,134.0,12.2,-9999.0,'11111222,11111222,99999999' 
ADCP,ioos:station:wmo:42373:1,2009-04-01T20:11:00Z,27.3540,-94.6250,79.0,139.0,11.1,-9999.0,'11111222,11111222,99999999' 
ADCP,ioos:station:wmo:42373:1,2009-04-01T20:31:00Z,27.3540,-94.6250,79.0,134.0,10.9,-9999.0,'11111222,11111222,99999999' 
ADCP,ioos:station:wmo:42373:1,2009-04-01T20:51:00Z,27.3540,-94.6250,79.0,123.0,10.8,-9999.0,'11111222,11111222,99999999' 
ADCP,ioos:station:wmo:42373:1,2009-04-01T21:11:00Z,27.3540,-94.6250,79.0,147.0,7.9,-9999.0,'11133222,11111222,99999999' 
ADCP,ioos:station:wmo:42373:1,2009-04-01T21:31:00Z,27.3540,-94.6250,79.0,153.0,7.7,-9999.0,'11133222,11111222,99999999' 
ADCP,ioos:station:wmo:42373:1,2009-04-01T21:51:00Z,27.3540,-94.6250,79.0,138.0,8.0,-9999.0,'11133222,11111222,99999999' 
ADCP,ioos:station:wmo:42373:1,2009-04-01T22:11:00Z,27.3540,-94.6250,79.0,192.0,6.2,-9999.0,'11133222,11111222,99999999' 
ADCP,ioos:station:wmo:42373:1,2009-04-01T22:31:00Z,27.3540,-94.6250,79.0,152.0,7.3,-9999.0,'11133222,11111222,99999999' 
ADCP,ioos:station:wmo:42373:1,2009-04-01T22:51:00Z,27.3540,-94.6250,79.0,134.0,8.4,-9999.0,'11133222,11111222,99999999' 
ADCP,ioos:station:wmo:42373:1,2009-04-01T23:11:00Z,27.3540,-94.6250,79.0,125.0,6.5,-9999.0,'11133222,11111222,99999999' 
ADCP,ioos:station:wmo:42373:1,2009-04-01T23:31:00Z,27.3540,-94.6250,79.0,123.0,8.7,-9999.0,'11133222,11111222,99999999' 
ADCP,ioos:station:wmo:42373:1,2009-04-01T23:51:00Z,27.3540,-94.6250,79.0,131.0,6.4,-9999.0,'11133222,11111222,99999999' 
ADCP,ioos:station:wmo:42373:1,2009-04-02T00:11:00Z,27.3540,-94.6250,79.0,114.0,6.0,-9999.0,'11133222,11111222,99999999' 
ADCP,ioos:station:wmo:42373:1,2009-04-02T00:31:00Z,27.3540,-94.6250,79.0,97.0,6.6,-9999.0,'11133222,11111222,99999999' 
ADCP,ioos:station:wmo:42373:1,2009-04-02T00:51:00Z,27.3540,-94.6250,79.0,103.0,8.1,-9999.0,'11133222,11111222,99999999' 
ADCP,ioos:station:wmo:42373:1,2009-04-02T01:11:00Z,27.3540,-94.6250,79.0,113.0,8.4,-9999.0,'11133222,11111222,99999999' 
ADCP,ioos:station:wmo:42373:1,2009-04-02T01:31:00Z,27.3540,-94.6250,79.0,123.0,6.9,-9999.0,'11133222,11111222,99999999' 
ADCP,ioos:station:wmo:42373:1,2009-04-02T01:51:00Z,27.3540,-94.6250,79.0,119.0,8.2,-9999.0,'11133222,11111222,99999999' 
ADCP,ioos:station:wmo:42373:1,2009-04-02T02:11:00Z,27.3540,-94.6250,79.0,119.0,11.2,-9999.0,'11111222,11111222,99999999' 
ADCP,ioos:station:wmo:42373:1,2009-04-02T02:31:00Z,27.3540,-94.6250,79.0,128.0,9.4,-9999.0,'11133222,11111222,99999999' 
ADCP,ioos:station:wmo:42373:1,2009-04-02T02:51:00Z,27.3540,-94.6250,79.0,118.0,12.6,-9999.0,'11111222,11111222,99999999' 
ADCP,ioos:station:wmo:42373:1,2009-04-02T03:11:00Z,27.3540,-94.6250,79.0,116.0,14.0,-9999.0,'11111222,11111222,99999999' 
ADCP,ioos:station:wmo:42373:1,2009-04-02T03:31:00Z,27.3540,-94.6250,79.0,116.0,15.3,-9999.0,'11111222,11111222,99999999' 
ADCP,ioos:station:wmo:42373:1,2009-04-02T03:51:00Z,27.3540,-94.6250,79.0,119.0,15.4,-9999.0,'11111222,11111222,99999999' 
ADCP,ioos:station:wmo:42373:1,2009-04-02T04:11:00Z,27.3540,-94.6250,79.0,114.0,16.7,-9999.0,'11111222,11111222,99999999' 
ADCP,ioos:station:wmo:42373:1,2009-04-02T04:31:00Z,27.3540,-94.6250,79.0,116.0,16.1,-9999.0,'11111222,11111222,99999999' 
ADCP,ioos:station:wmo:42373:1,2009-04-02T04:51:00Z,27.3540,-94.6250,79.0,118.0,16.2,-9999.0,'11111222,11111222,99999999' 
ADCP,ioos:station:wmo:42373:1,2009-04-02T05:11:00Z,27.3540,-94.6250,79.0,118.0,13.6,-9999.0,'11111222,11111222,99999999' 
ADCP,ioos:station:wmo:42373:1,2009-04-02T05:31:00Z,27.3540,-94.6250,79.0,118.0,14.8,-9999.0,'11111222,11111222,99999999' 
ADCP,ioos:station:wmo:42373:1,2009-04-02T05:51:00Z,27.3540,-94.6250,79.0,114.0,14.2,-9999.0,'11111222,11111222,99999999' 
ADCP,ioos:station:wmo:42373:1,2009-04-02T06:11:00Z,27.3540,-94.6250,79.0,107.0,16.3,-9999.0,'11111222,11111222,99999999' 
ADCP,ioos:station:wmo:42373:1,2009-04-02T06:31:00Z,27.3540,-94.6250,79.0,108.0,16.9,-9999.0,'11111222,11111222,99999999' 
ADCP,ioos:station:wmo:42373:1,2009-04-02T06:51:00Z,27.3540,-94.6250,79.0,114.0,16.5,-9999.0,'11111222,11111222,99999999' 
ADCP,ioos:station:wmo:42373:1,2009-04-02T07:11:00Z,27.3540,-94.6250,79.0,117.0,17.2,-9999.0,'11111222,11111222,99999999' 
ADCP,ioos:station:wmo:42373:1,2009-04-02T07:31:00Z,27.3540,-94.6250,79.0,120.0,16.8,-9999.0,'11111222,11111222,99999999' 
ADCP,ioos:station:wmo:42373:1,2009-04-02T07:51:00Z,27.3540,-94.6250,79.0,120.0,16.4,-9999.0,'11111222,11111222,99999999' 
ADCP,ioos:station:wmo:42373:1,2009-04-02T08:11:00Z,27.3540,-94.6250,79.0,117.0,16.3,-9999.0,'11111222,11111222,99999999' 
ADCP,ioos:station:wmo:42373:1,2009-04-02T08:31:00Z,27.3540,-94.6250,79.0,120.0,15.4,-9999.0,'11111222,11111222,99999999' 
ADCP,ioos:station:wmo:42373:1,2009-04-02T08:51:00Z,27.3540,-94.6250,79.0,117.0,17.1,-9999.0,'11111222,11111222,99999999' 
ADCP,ioos:station:wmo:42373:1,2009-04-02T09:11:00Z,27.3540,-94.6250,79.0,116.0,17.4,-9999.0,'11111222,11111222,99999999' 
ADCP,ioos:station:wmo:42373:1,2009-04-02T09:31:00Z,27.3540,-94.6250,79.0,121.0,16.2,-9999.0,'11111222,11111222,99999999' 
ADCP,ioos:station:wmo:42373:1,2009-04-02T09:51:00Z,27.3540,-94.6250,79.0,120.0,16.4,-9999.0,'11111222,11111222,99999999' 
ADCP,ioos:station:wmo:42373:1,2009-04-02T10:11:00Z,27.3540,-94.6250,79.0,118.0,17.3,-9999.0,'11111222,11111222,99999999' 
ADCP,ioos:station:wmo:42373:1,2009-04-02T10:31:00Z,27.3540,-94.6250,79.0,120.0,16.8,-9999.0,'11111222,11111222,99999999' 
ADCP,ioos:station:wmo:42373:1,2009-04-02T10:51:00Z,27.3540,-94.6250,79.0,120.0,16.8,-9999.0,'11111222,11111222,99999999' 
ADCP,ioos:station:wmo:42373:1,2009-04-02T11:11:00Z,27.3540,-94.6250,79.0,122.0,15.6,-9999.0,'11111222,11111222,99999999' 
ADCP,ioos:station:wmo:42373:1,2009-04-02T11:31:00Z,27.3540,-94.6250,79.0,124.0,14.5,-9999.0,'11111222,11111222,99999999' 
ADCP,ioos:station:wmo:42373:1,2009-04-02T11:51:00Z,27.3540,-94.6250,79.0,119.0,14.5,-9999.0,'11111222,11111222,99999999' 
ADCP,ioos:station:wmo:42373:1,2009-04-02T12:11:00Z,27.3540,-94.6250,79.0,112.0,16.8,-9999.0,'11111222,11111222,99999999' 
ADCP,ioos:station:wmo:42373:1,2009-04-02T12:31:00Z,27.3540,-94.6250,79.0,123.0,15.9,-9999.0,'11111222,11111222,99999999' 
ADCP,ioos:station:wmo:42373:1,2009-04-02T12:51:00Z,27.3540,-94.6250,79.0,124.0,15.5,-9999.0,'11111222,11111222,99999999' 
ADCP,ioos:station:wmo:42373:1,2009-04-02T13:11:00Z,27.3540,-94.6250,79.0,122.0,13.9,-9999.0,'11111222,11111222,99999999' 
ADCP,ioos:station:wmo:42373:1,2009-04-02T13:31:00Z,27.3540,-94.6250,79.0,121.0,14.7,-9999.0,'11111222,11111222,99999999' 
ADCP,ioos:station:wmo:42373:1,2009-04-02T13:51:00Z,27.3540,-94.6250,79.0,116.0,15.4,-9999.0,'11111222,11111222,99999999' 
ADCP,ioos:station:wmo:42373:1,2009-04-02T14:11:00Z,27.3540,-94.6250,79.0,121.0,13.4,-9999.0,'11111222,11111222,99999999' 
ADCP,ioos:station:wmo:42373:1,2009-04-02T14:31:00Z,27.3540,-94.6250,79.0,120.0,12.4,-9999.0,'11111222,11111222,99999999' 
ADCP,ioos:station:wmo:42373:1,2009-04-02T14:51:00Z,27.3540,-94.6250,79.0,119.0,11.1,-9999.0,'11111222,11111222,99999999' 
ADCP,ioos:station:wmo:42373:1,2009-04-02T15:11:00Z,27.3540,-94.6250,79.0,124.0,9.7,-9999.0,'11133222,11111222,99999999' 
ADCP,ioos:station:wmo:42373:1,2009-04-02T15:31:00Z,27.3540,-94.6250,79.0,110.0,11.6,-9999.0,'11111222,11111222,99999999' 
ADCP,ioos:station:wmo:42373:1,2009-04-02T15:51:00Z,27.3540,-94.6250,79.0,108.0,11.9,-9999.0,'11111222,11111222,99999999' 
ADCP,ioos:station:wmo:42373:1,2009-04-02T16:11:00Z,27.3540,-94.6250,79.0,107.0,11.2,-9999.0,'11111222,11111222,99999999' 
ADCP,ioos:station:wmo:42373:1,2009-04-02T16:31:00Z,27.3540,-94.6250,79.0,98.0,11.0,-9999.0,'11111222,11111222,99999999' 
ADCP,ioos:station:wmo:42373:1,2009-04-02T16:51:00Z,27.3540,-94.6250,79.0,92.0,10.5,-9999.0,'11111222,11111222,99999999' 
ADCP,ioos:station:wmo:42373:1,2009-04-02T17:11:00Z,27.3540,-94.6250,79.0,85.0,11.2,-9999.0,'11111222,11111222,99999999' 
ADCP,ioos:station:wmo:42373:1,2009-04-02T17:31:00Z,27.3540,-94.6250,79.0,83.0,12.2,-9999.0,'11111222,11111222,99999999' 
ADCP,ioos:station:wmo:42373:1,2009-04-02T17:51:00Z,27.3540,-94.6250,79.0,79.0,11.0,-9999.0,'11111222,11111222,99999999' 
ADCP,ioos:station:wmo:42373:1,2009-04-02T18:11:00Z,27.3540,-94.6250,79.0,78.0,12.2,-9999.0,'11111222,11111222,99999999' 
ADCP,ioos:station:wmo:42373:1,2009-04-02T18:31:00Z,27.3540,-94.6250,79.0,77.0,14.6,-9999.0,'11111222,11111222,99999999' 
ADCP,ioos:station:wmo:42373:1,2009-04-02T18:51:00Z,27.3540,-94.6250,79.0,78.0,15.1,-9999.0,'11111222,11111222,99999999' 
ADCP,ioos:station:wmo:42373:1,2009-04-02T19:11:00Z,27.3540,-94.6250,79.0,81.0,15.4,-9999.0,'11111222,11111222,99999999' 
ADCP,ioos:station:wmo:42373:1,2009-04-02T19:31:00Z,27.3540,-94.6250,79.0,77.0,15.0,-9999.0,'11111222,11111222,99999999' 
ADCP,ioos:station:wmo:42373:1,2009-04-02T19:51:00Z,27.3540,-94.6250,79.0,77.0,13.7,-9999.0,'11111222,11111222,99999999' 
ADCP,ioos:station:wmo:42373:1,2009-04-02T20:11:00Z,27.3540,-94.6250,79.0,76.0,15.6,-9999.0,'11111222,11111222,99999999' 
ADCP,ioos:station:wmo:42373:1,2009-04-02T20:31:00Z,27.3540,-94.6250,79.0,83.0,16.5,-9999.0,'11111222,11111222,99999999' 
ADCP,ioos:station:wmo:42373:1,2009-04-02T20:51:00Z,27.3540,-94.6250,79.0,86.0,14.6,-9999.0,'11111222,11111222,99999999' 
ADCP,ioos:station:wmo:42373:1,2009-04-02T21:11:00Z,27.3540,-94.6250,79.0,88.0,14.6,-9999.0,'11111222,11111222,99999999' 
ADCP,ioos:station:wmo:42373:1,2009-04-02T21:31:00Z,27.3540,-94.6250,79.0,84.0,14.2,-9999.0,'11111222,11111222,99999999' 
ADCP,ioos:station:wmo:42373:1,2009-04-02T21:51:00Z,27.3540,-94.6250,79.0,80.0,14.0,-9999.0,'11111222,11111222,99999999' 
ADCP,ioos:station:wmo:42373:1,2009-04-02T22:11:00Z,27.3540,-94.6250,79.0,80.0,14.5,-9999.0,'11111222,11111222,99999999' 
ADCP,ioos:station:wmo:42373:1,2009-04-02T22:31:00Z,27.3540,-94.6250,79.0,81.0,13.8,-9999.0,'11111222,11111222,99999999' 
ADCP,ioos:station:wmo:42373:1,2009-04-02T22:51:00Z,27.3540,-94.6250,79.0,84.0,13.5,-9999.0,'11111222,11111222,99999999' 
ADCP,ioos:station:wmo:42373:1,2009-04-02T23:11:00Z,27.3540,-94.6250,79.0,82.0,13.5,-9999.0,'11111222,11111222,99999999' 
ADCP,ioos:station:wmo:42373:1,2009-04-02T23:31:00Z,27.3540,-94.6250,79.0,75.0,13.1,-9999.0,'11111222,11111222,99999999' 
ADCP,ioos:station:wmo:42373:1,2009-04-02T23:51:00Z,27.3540,-94.6250,79.0,73.0,12.7,-9999.0,'11111222,11111222,99999999' 
ADCP,ioos:station:wmo:42373:1,2009-04-03T00:11:00Z,27.3540,-94.6250,79.0,72.0,11.9,-9999.0,'11111222,11111222,99999999' 
ADCP,ioos:station:wmo:42373:1,2009-04-03T00:31:00Z,27.3540,-94.6250,79.0,69.0,10.2,-9999.0,'11111222,11111222,99999999' 
ADCP,ioos:station:wmo:42373:1,2009-04-03T00:51:00Z,27.3540,-94.6250,79.0,63.0,11.0,-9999.0,'11111222,11111222,99999999' 
ADCP,ioos:station:wmo:42373:1,2009-04-03T01:11:00Z,27.3540,-94.6250,79.0,55.0,15.0,-9999.0,'11111222,11111222,99999999' 
ADCP,ioos:station:wmo:42373:1,2009-04-03T01:31:00Z,27.3540,-94.6250,79.0,50.0,17.7,-9999.0,'11111222,11111222,99999999' 
ADCP,ioos:station:wmo:42373:1,2009-04-03T01:51:00Z,27.3540,-94.6250,79.0,52.0,19.5,-9999.0,'11111222,11111222,99999999' 
ADCP,ioos:station:wmo:42373:1,2009-04-03T02:11:00Z,27.3540,-94.6250,79.0,60.0,19.0,-9999.0,'11111222,11111222,99999999' 
ADCP,ioos:station:wmo:42373:1,2009-04-03T02:31:00Z,27.3540,-94.6250,79.0,61.0,18.2,-9999.0,'11111222,11111222,99999999' 
ADCP,ioos:station:wmo:42373:1,2009-04-03T02:51:00Z,27.3540,-94.6250,79.0,60.0,17.1,-9999.0,'11111222,11111222,99999999' 
ADCP,ioos:station:wmo:42373:1,2009-04-03T03:11:00Z,27.3540,-94.6250,79.0,72.0,14.4,-9999.0,'11111222,11111222,99999999' 
ADCP,ioos:station:wmo:42373:1,2009-04-03T03:31:00Z,27.3540,-94.6250,79.0,83.0,13.9,-9999.0,'11111222,11111222,99999999' 
ADCP,ioos:station:wmo:42373:1,2009-04-03T03:51:00Z,27.3540,-94.6250,79.0,91.0,13.7,-9999.0,'11111222,11111222,99999999' 
ADCP,ioos:station:wmo:42373:1,2009-04-03T04:11:00Z,27.3540,-94.6250,79.0,99.0,12.8,-9999.0,'11111222,11111222,99999999' 
ADCP,ioos:station:wmo:42373:1,2009-04-03T04:31:00Z,27.3540,-94.6250,79.0,103.0,12.1,-9999.0,'11111222,11111222,99999999' 
ADCP,ioos:station:wmo:42373:1,2009-04-03T04:51:00Z,27.3540,-94.6250,79.0,117.0,11.6,-9999.0,'11111222,11111222,99999999' 
ADCP,ioos:station:wmo:42373:1,2009-04-03T05:31:00Z,27.3540,-94.6250,79.0,134.0,13.5,-9999.0,'11111222,11111222,99999999' 
ADCP,ioos:station:wmo:42373:1,2009-04-03T05:51:00Z,27.3540,-94.6250,79.0,136.0,13.7,-9999.0,'11111222,11111222,99999999' 
ADCP,ioos:station:wmo:42373:1,2009-04-03T06:11:00Z,27.3540,-94.6250,79.0,139.0,14.5,-9999.0,'11111222,11111222,99999999' 
ADCP,ioos:station:wmo:42373:1,2009-04-03T06:31:00Z,27.3540,-94.6250,79.0,144.0,13.7,-9999.0,'11111222,11111222,99999999' 
ADCP,ioos:station:wmo:42373:1,2009-04-03T06:51:00Z,27.3540,-94.6250,79.0,146.0,13.5,-9999.0,'11111222,11111222,99999999' 
ADCP,ioos:station:wmo:42373:1,2009-04-03T07:11:00Z,27.3540,-94.6250,79.0,143.0,13.1,-9999.0,'11111222,11111222,99999999' 
ADCP,ioos:station:wmo:42373:1,2009-04-03T07:31:00Z,27.3540,-94.6250,79.0,139.0,13.4,-9999.0,'11111222,11111222,99999999' 
ADCP,ioos:station:wmo:42373:1,2009-04-03T07:51:00Z,27.3540,-94.6250,79.0,147.0,13.0,-9999.0,'11111222,11111222,99999999' 
ADCP,ioos:station:wmo:42373:1,2009-04-03T08:11:00Z,27.3540,-94.6250,79.0,152.0,13.2,-9999.0,'11111222,11111222,99999999' 
ADCP,ioos:station:wmo:42373:1,2009-04-03T08:31:00Z,27.3540,-94.6250,79.0,157.0,12.0,-9999.0,'11111222,11111222,99999999' 
ADCP,ioos:station:wmo:42373:1,2009-04-03T08:51:00Z,27.3540,-94.6250,79.0,169.0,11.5,-9999.0,'11111222,11111222,99999999' 
ADCP,ioos:station:wmo:42373:1,2009-04-03T09:11:00Z,27.3540,-94.6250,79.0,170.0,11.2,-9999.0,'11111222,11111222,99999999' 
ADCP,ioos:station:wmo:42373:1,2009-04-03T09:31:00Z,27.3540,-94.6250,79.0,163.0,10.9,-9999.0,'11111222,11111222,99999999' 
ADCP,ioos:station:wmo:42373:1,2009-04-03T09:51:00Z,27.3540,-94.6250,79.0,148.0,11.2,-9999.0,'11111222,11111222,99999999' 
ADCP,ioos:station:wmo:42373:1,2009-04-03T10:11:00Z,27.3540,-94.6250,79.0,148.0,12.5,-9999.0,'11111222,11111222,99999999' 
ADCP,ioos:station:wmo:42373:1,2009-04-03T10:31:00Z,27.3540,-94.6250,79.0,147.0,12.2,-9999.0,'11111222,11111222,99999999' 
ADCP,ioos:station:wmo:42373:1,2009-04-03T10:51:00Z,27.3540,-94.6250,79.0,155.0,11.9,-9999.0,'11111222,11111222,99999999' 
ADCP,ioos:station:wmo:42373:1,2009-04-03T11:11:00Z,27.3540,-94.6250,79.0,149.0,12.3,-9999.0,'11111222,11111222,99999999' 
ADCP,ioos:station:wmo:42373:1,2009-04-03T11:31:00Z,27.3540,-94.6250,79.0,159.0,11.0,-9999.0,'11111222,11111222,99999999' 
ADCP,ioos:station:wmo:42373:1,2009-04-03T11:51:00Z,27.3540,-94.6250,79.0,152.0,12.4,-9999.0,'11111222,11111222,99999999' 
ADCP,ioos:station:wmo:42373:1,2009-04-03T12:11:00Z,27.3540,-94.6250,79.0,137.0,12.2,-9999.0,'11111222,11111222,99999999' 
ADCP,ioos:station:wmo:42373:1,2009-04-03T12:31:00Z,27.3540,-94.6250,79.0,164.0,13.1,-9999.0,'11111222,11111222,99999999' 
ADCP,ioos:station:wmo:42373:1,2009-04-03T12:51:00Z,27.3540,-94.6250,79.0,168.0,11.8,-9999.0,'11111222,11111222,99999999' 
ADCP,ioos:station:wmo:42373:1,2009-04-03T13:11:00Z,27.3540,-94.6250,79.0,154.0,12.9,-9999.0,'11111222,11111222,99999999' 
ADCP,ioos:station:wmo:42373:1,2009-04-03T13:31:00Z,27.3540,-94.6250,79.0,161.0,12.8,-9999.0,'11111222,11111222,99999999' 
ADCP,ioos:station:wmo:42373:1,2009-04-03T13:51:00Z,27.3540,-94.6250,79.0,154.0,12.6,-9999.0,'11111222,11111222,99999999' 
ADCP,ioos:station:wmo:42373:1,2009-04-03T14:11:00Z,27.3540,-94.6250,79.0,162.0,13.1,-9999.0,'11111222,11111222,99999999' 
ADCP,ioos:station:wmo:42373:1,2009-04-03T14:31:00Z,27.3540,-94.6250,79.0,168.0,13.5,-9999.0,'11111222,11111222,99999999' 
ADCP,ioos:station:wmo:42373:1,2009-04-03T14:51:00Z,27.3540,-94.6250,79.0,194.0,11.1,-9999.0,'11111222,11111222,99999999' 
ADCP,ioos:station:wmo:42373:1,2009-04-03T15:11:00Z,27.3540,-94.6250,79.0,246.0,15.2,-9999.0,'11111222,11111222,99999999' 
ADCP,ioos:station:wmo:42373:1,2009-04-03T15:31:00Z,27.3540,-94.6250,79.0,248.0,16.4,-9999.0,'11111222,11111222,99999999' 
ADCP,ioos:station:wmo:42373:1,2009-04-03T15:51:00Z,27.3540,-94.6250,79.0,247.0,4.8,-9999.0,'11133222,11111222,99999999' 
ADCP,ioos:station:wmo:42373:1,2009-04-03T16:11:00Z,27.3540,-94.6250,79.0,148.0,4.1,-9999.0,'11133222,11111222,99999999' 
ADCP,ioos:station:wmo:42373:1,2009-04-03T16:31:00Z,27.3540,-94.6250,79.0,100.0,7.2,-9999.0,'11133222,11111222,99999999' 
ADCP,ioos:station:wmo:42373:1,2009-04-03T16:51:00Z,27.3540,-94.6250,79.0,168.0,2.5,-9999.0,'11133222,11111222,99999999' 
ADCP,ioos:station:wmo:42373:1,2009-04-03T17:11:00Z,27.3540,-94.6250,79.0,150.0,4.4,-9999.0,'11133222,11111222,99999999' 
ADCP,ioos:station:wmo:42373:1,2009-04-03T17:31:00Z,27.3540,-94.6250,79.0,201.0,5.5,-9999.0,'11133222,11111222,99999999' 
ADCP,ioos:station:wmo:42373:1,2009-04-03T17:51:00Z,27.3540,-94.6250,79.0,157.0,4.4,-9999.0,'11133222,11111222,99999999' 